Cloud_Cover
5 17 5 5 5 5 5 5 5 5 5 5 5 24 5 33 98 6 63 100 100 100 100 100 100 100 100 100 100 100 100 100 100 100 100 100 100 100 100 100 100 100 100
5 5 18 0 4 5 5 5 5 5 5 5 15 40 6 60 99 14 96 100 100 100 100 100 100 100 100 100 100 100 100 100 100 100 100 100 100 100 100 100 100 100 56
5 4 32 5 0 5 5 30 54 18 5 5 28 47 11 100 95 52 99 100 100 100 100 100 100 100 100 100 100 100 100 100 100 100 100 100 100 100 100 100 100 100 98
72 5 5 5 1 5 53 95 100 97 5 5 14 43 5 100 73 77 100 100 100 100 100 100 100 100 100 100 100 100 100 100 100 100 100 100 100 100 100 100 94 100 100
100 24 5 2 1 5 74 100 100 58 5 5 5 62 6 53 72 96 100 100 100 100 100 100 100 100 100 100 100 100 100 100 100 100 100 100 100 100 100 100 100 100 100
100 93 13 1 5 5 71 100 5 5 5 5 5 44 32 7 89 100 100 100 100 100 100 100 100 100 100 100 100 100 100 100 100 100 100 100 100 100 100 100 100 100 100
100 100 19 5 5 5 46 62 5 5 5 5 5 5 78 18 100 100 100 100 100 100 100 100 100 100 100 100 100 100 100 100 100 100 100 100 100 100 100 100 100 100 100
100 100 78 5 5 5 5 73 23 5 5 5 28 5 18 78 100 100 100 100 100 100 100 100 100 100 100 100 100 100 100 100 100 100 100 100 100 100 100 100 100 99 100
90 99 41 5 5 5 5 84 5 5 5 5 61 5 5 50 100 100 100 100 100 100 89 100 100 100 100 100 100 100 100 100 100 100 100 100 100 100 100 100 100 99 100
91 29 7 5 5 5 5 8 5 5 5 5 5 5 5 79 100 100 100 100 100 100 100 100 100 100 100 100 100 100 100 100 100 100 100 100 100 100 100 100 100 100 100
13 5 5 5 5 5 30 5 5 5 5 5 5 5 5 95 100 100 100 100 100 100 99 99 100 100 100 100 100 100 100 100 100 100 100 100 100 100 100 100 100 100 100
5 5 5 5 5 23 100 32 5 6 84 54 42 5 5 88 92 100 100 84 73 96 100 97 89 100 100 100 100 100 100 100 100 100 100 100 100 100 100 100 100 100 100
8 5 5 5 5 5 30 85 5 27 92 95 71 79 85 91 88 97 100 20 19 78 86 95 72 37 36 100 100 100 100 100 100 100 100 100 100 100 100 100 100 100 100
5 5 4 5 5 5 5 5 5 30 92 92 80 83 94 100 100 98 95 84 6 5 55 79 74 69 54 46 99 96 98 100 100 100 100 100 100 100 100 100 100 100 100
5 4 5 5 17 5 5 5 5 53 84 96 53 26 99 100 91 99 100 94 59 12 74 70 82 84 97 90 75 81 99 99 100 100 100 100 100 100 100 100 100 100 100
9 5 5 5 5 5 66 96 6 5 5 45 11 39 66 97 95 90 100 100 85 5 83 91 98 100 100 100 99 98 100 100 100 100 100 100 100 100 100 100 100 100 100
5 5 5 5 5 29 40 91 92 5 5 5 5 5 100 100 97 59 17 28 100 24 97 100 100 100 100 100 100 100 100 100 100 100 100 100 99 100 100 100 100 100 100
5 5 5 6 40 23 40 13 85 82 84 39 5 5 32 65 97 62 5 7 69 35 100 100 78 100 100 100 100 100 100 100 100 100 100 100 100 100 100 100 100 100 100
5 8 6 9 18 8 5 5 29 5 61 61 37 5 5 5 91 88 5 91 100 100 99 100 93 100 100 100 100 100 100 100 100 100 100 100 100 100 100 100 100 100 100
13 18 5 5 5 5 5 5 5 5 5 34 52 57 6 5 91 100 37 92 100 100 100 100 95 98 100 100 99 98 100 100 100 100 100 100 100 100 100 100 100 100 100
21 24 5 5 5 5 5 5 12 9 57 53 63 22 5 6 100 100 63 87 100 100 100 100 100 100 100 100 100 100 100 100 100 100 100 100 100 100 100 100 100 100 100
69 5 5 5 5 5 5 5 5 5 5 35 65 6 31 5 98 99 24 57 85 100 100 100 100 100 100 100 100 100 100 100 100 100 100 100 100 100 100 100 100 100 100
99 10 5 4 5 5 5 5 8 20 41 60 15 16 71 42 85 48 11 52 62 79 92 100 100 100 100 100 100 100 100 100 100 100 100 100 100 100 100 100 100 100 100
78 43 5 5 5 5 22 54 56 35 25 67 73 58 74 70 72 86 34 47 21 27 51 82 100 99 76 100 100 100 100 100 100 100 100 100 100 100 100 100 100 100 100
93 5 5 5 5 18 53 42 58 56 58 66 67 70 64 62 51 54 52 56 45 55 15 42 95 78 59 83 86 97 100 100 100 100 100 100 100 100 100 100 100 100 100
21 5 5 5 42 44 62 51 61 58 62 63 62 73 64 63 53 66 53 31 8 10 5 26 41 5 16 90 86 97 99 100 100 100 100 100 100 100 100 100 100 100 100